Location: Belfast
(54.5830°N, 5.9330°W)
Time: 23:01:48
(UTC+01:00)

ISS - Pass Details

Date: 21 May 2018
Orbit: 402 x 407 km, 51.6° (Epoch: 24 May)

Event Time Altitude Azimuth Distance (km) Brightness Sun altitude
Rises 01:17:12 0° 256° (WSW) 2,318 -0.1 -15.3°
Reaches altitude 10° 01:19:18 10° 251° (WSW) 1,459 -1.2 -15.3°
Maximum altitude 01:22:29 49° 175° (S) 529 -3.7 -15.3°
Drops below altitude 10° 01:25:39 10° 99° (E) 1,459 -1.1 -15.3°
Sets 01:27:46 0° 94° (E) 2,318 0.0 -15.3°
